FW4047 Weather Reports


Display with metric or nautical units.
time (UTC)temp
F
wind
direction
speed
MPH
gust
MPH
rain 1hr
in
rain 24hr
in
rain mn
in
humidity
%
barometer
mb
20190320005518 33 304 0.0 1.0 0.00 0.00 0.00 47 1030.2
20190320005057 33 304 0.0 1.0 0.00 0.00 0.00 47 1030.2
20190320004556 34 304 0.0 2.0 0.00 0.00 0.00 46 1030.2
20190320004017 34 304 0.0 2.0 0.00 0.00 0.00 46 1030.1
20190320003114 34 304 0.0 2.0 0.00 0.00 0.00 44 1030.1
20190320002523 35 304 1.0 2.0 0.00 0.00 0.00 42 1030.1
20190320002059 35 304 1.0 2.0 0.00 0.00 0.00 42 1030.2
20190320001614 35 304 0.0 3.0 0.00 0.00 0.00 43 1030.2
20190320001021 36 304 1.0 3.0 0.00 0.00 0.00 42 1030.3
20190320000600 36 304 0.0 3.0 0.00 0.00 0.00 42 1030.3
20190320000119 36 304 1.0 3.0 0.00 0.00 0.00 41 1030.3
20190319235522 36 20 0.0 2.0 0.00 0.00 0.00 41 1030.3
20190319235004 37 20 0.0 2.0 0.00 0.00 0.00 41 1030.2
20190319234625 37 20 0.0 3.0 0.00 0.00 0.00 40 1030.3
20190319234032 37 20 1.0 3.0 0.00 0.00 0.00 40 1030.2
20190319233505 37 12 0.0 3.0 0.00 0.00 0.00 39 1030.3
20190319233145 37 12 1.0 3.0 0.00 0.00 0.00 37 1030.2
20190319232529 38 334 1.0 3.0 0.00 0.00 0.00 36 1030.3
20190319232009 38 288 0.0 3.0 0.00 0.00 0.00 36 1030.2
20190319231722 39 288 0.0 8.0 0.00 0.00 0.00 35 1030.1
20190319231035 39 285 3.0 8.0 0.00 0.00 0.00 34 1030.0
20190319230515 40 180 0.0 4.0 0.00 0.00 0.00 34 1030.2
20190319225547 40 260 1.0 7.0 0.00 0.00 0.00 32 1030.0
20190319225021 40 293 2.0 7.0 0.00 0.00 0.00 31 1030.1
20190319224042 41 333 0.0 8.0 0.00 0.00 0.00 31 1030.2
20190319223523 42 266 2.0 8.0 0.00 0.00 0.00 29 1030.1
20190319223006 42 320 0.0 6.0 0.00 0.00 0.00 29 1030.1
20190319222546 42 15 0.0 6.0 0.00 0.00 0.00 30 1030.1
20190319222031 43 291 2.0 7.0 0.00 0.00 0.00 28 1030.2
20190319221534 43 294 2.0 7.0 0.00 0.00 0.00 30 1030.1
20190319221058 43 160 0.0 7.0 0.00 0.00 0.00 30 1030.1
20190319220532 43 283 2.0 8.0 0.00 0.00 0.00 29 1030.1
20190319220051 43 277 3.0 8.0 0.00 0.00 0.00 28 1030.0
20190319215604 43 287 3.0 9.0 0.00 0.00 0.00 28 1030.0
20190319215040 44 272 3.0 9.0 0.00 0.00 0.00 28 1030.1
20190319214540 43 278 2.0 10.0 0.00 0.00 0.00 29 1030.2
20190319213546 43 71 2.0 8.0 0.00 0.00 0.00 28 1030.3
20190319213051 43 295 1.0 10.0 0.00 0.00 0.00 30 1030.4
20190319212503 42 282 2.0 9.0 0.00 0.00 0.00 29 1030.4
20190319212047 42 345 1.0 7.0 0.00 0.00 0.00 29 1030.4
20190319211613 43 66 3.0 9.0 0.00 0.00 0.00 28 1030.5
20190319211007 43 112 2.0 12.0 0.00 0.00 0.00 29 1030.4
20190319210555 45 293 7.0 12.0 0.00 0.00 0.00 27 1030.4
20190319210145 44 185 2.0 6.0 0.00 0.00 0.00 31 1030.3
20190319205512 43 15 1.0 9.0 0.00 0.00 0.00 28 1030.5
20190319205056 44 278 1.0 9.0 0.00 0.00 0.00 28 1030.4
20190319204637 44 233 1.0 10.0 0.00 0.00 0.00 29 1030.5
20190319204016 45 216 1.0 10.0 0.00 0.00 0.00 28 1030.6
20190319203600 44 274 2.0 6.0 0.00 0.00 0.00 29 1030.7
20190319203046 44 326 1.0 11.0 0.00 0.00 0.00 29 1030.9
20190319202523 44 157 1.0 12.0 0.00 0.00 0.00 29 1030.9
20190319201620 43 68 1.0 4.0 0.00 0.00 0.00 29 1030.9
20190319201024 43 69 1.0 7.0 0.00 0.00 0.00 29 1031.0
20190319200507 44 299 2.0 8.0 0.00 0.00 0.00 29 1031.1
20190319200135 45 274 2.0 8.0 0.00 0.00 0.00 30 1031.0
20190319195536 44 244 1.0 7.0 0.00 0.00 0.00 29 1031.1
20190319195013 44 96 3.0 7.0 0.00 0.00 0.00 30 1031.0
20190319194647 45 269 3.0 9.0 0.00 0.00 0.00 30 1031.1
20190319194041 44 295 4.0 9.0 0.00 0.00 0.00 30 1031.0
20190319193523 44 216 0.0 8.0 0.00 0.00 0.00 30 1031.1
20190319192541 43 266 2.0 12.0 0.00 0.00 0.00 31 1031.2
20190319192021 44 264 2.0 12.0 0.00 0.00 0.00 29 1031.0
20190319191501 43 148 1.0 9.0 0.00 0.00 0.00 31 1031.1
20190319191050 43 270 5.0 9.0 0.00 0.00 0.00 30 1031.3
20190319190533 43 283 3.0 7.0 0.00 0.00 0.00 32 1031.3
20190319190017 42 258 1.0 9.0 0.00 0.00 0.00 31 1031.4
20190319185556 43 291 4.0 9.0 0.00 0.00 0.00 32 1031.4
20190319185031 44 233 1.0 5.0 0.00 0.00 0.00 32 1031.4
20190319184526 42 217 0.0 7.0 0.00 0.00 0.00 32 1031.5
20190319184057 43 262 2.0 9.0 0.00 0.00 0.00 31 1031.7
20190319183538 43 229 3.0 9.0 0.00 0.00 0.00 34 1031.7
20190319183038 44 270 3.0 9.0 0.00 0.00 0.00 33 1031.8
20190319182600 45 206 3.0 7.0 0.00 0.00 0.00 30 1032.0
20190319182042 44 241 1.0 5.0 0.00 0.00 0.00 33 1032.1
20190319181521 42 159 1.0 9.0 0.00 0.00 0.00 34 1032.2
20190319180544 42 150 1.0 7.0 0.00 0.00 0.00 34 1032.3
20190319180103 40 262 2.0 9.0 0.00 0.00 0.00 36 1032.5
20190319175507 40 287 3.0 9.0 0.00 0.00 0.00 37 1032.8
20190319175048 40 270 0.0 9.0 0.00 0.00 0.00 36 1033.0
20190319174546 41 70 6.0 9.0 0.00 0.00 0.00 34 1033.1
20190319174007 41 233 1.0 6.0 0.00 0.00 0.00 36 1033.3
20190319173552 40 218 2.0 6.0 0.00 0.00 0.00 36 1033.3
20190319173046 42 288 1.0 4.0 0.00 0.00 0.00 35 1033.5
20190319172514 41 98 1.0 7.0 0.00 0.00 0.00 35 1033.6
20190319172056 41 112 1.0 7.0 0.00 0.00 0.00 37 1033.6
20190319171603 42 108 2.0 5.0 0.00 0.00 0.00 36 1033.6
20190319171020 41 79 2.0 6.0 0.00 0.00 0.00 37 1033.7
20190319170600 40 132 1.0 5.0 0.00 0.00 0.00 35 1033.7
20190319170105 40 226 1.0 5.0 0.00 0.00 0.00 35 1033.8
20190319165520 40 169 1.0 5.0 0.00 0.00 0.00 40 1033.8
20190319164630 37 129 1.0 7.0 0.00 0.00 0.00 42 1033.8
20190319164029 38 77 3.0 10.0 0.00 0.00 0.00 38 1033.9
20190319163508 39 89 5.0 10.0 0.00 0.00 0.00 38 1034.0
20190319163217 38 132 1.0 4.0 0.00 0.00 0.00 41 1033.8
20190319162533 38 104 2.0 6.0 0.00 0.00 0.00 40 1033.8
20190319162008 39 301 3.0 6.0 0.00 0.00 0.00 39 1033.8
20190319161706 38 136 1.0 5.0 0.00 0.00 0.00 41 1033.8
20190319161032 37 145 1.0 5.0 0.00 0.00 0.00 42 1033.9
20190319160514 36 108 2.0 5.0 0.00 0.00 0.00 43 1033.9
20190319160201 35 87 1.0 6.0 0.00 0.00 0.00 43 1033.9
20190319155537 35 96 3.0 6.0 0.00 0.00 0.00 43 1034.0
20190319155024 34 112 0.0 9.0 0.00 0.00 0.00 43 1034.1
20190319154041 35 136 1.0 7.0 0.00 0.00 0.00 43 1034.0
20190319153520 34 250 1.0 8.0 0.00 0.00 0.00 46 1033.9
20190319153003 34 99 5.0 8.0 0.00 0.00 0.00 44 1034.0
20190319152549 34 106 1.0 8.0 0.00 0.00 0.00 44 1033.9
20190319152026 33 130 2.0 7.0 0.00 0.00 0.00 46 1033.9
20190319151521 33 77 3.0 7.0 0.00 0.00 0.00 42 1034.0
20190319151052 33 91 2.0 8.0 0.00 0.00 0.00 45 1034.0
20190319150529 33 93 3.0 8.0 0.00 0.00 0.00 44 1034.1
20190319150018 33 123 3.0 7.0 0.00 0.00 0.00 44 1033.9
20190319145557 32 97 3.0 8.0 0.00 0.00 0.00 46 1034.1
20190319145035 32 97 3.0 10.0 0.00 0.00 0.00 45 1034.0
20190319144552 31 104 2.0 7.0 0.00 0.00 0.00 48 1033.9
20190319144058 31 89 3.0 7.0 0.00 0.00 0.00 48 1034.0
20190319143539 31 66 5.0 7.0 0.00 0.00 0.00 48 1033.9
20190319143108 31 91 4.0 10.0 0.00 0.00 0.00 48 1033.8
20190319142048 31 89 4.0 10.0 0.00 0.00 0.00 49 1033.8
20190319141605 30 88 7.0 10.0 0.00 0.00 0.00 48 1033.8
20190319141004 30 83 4.0 9.0 0.00 0.00 0.00 48 1033.8
20190319140546 30 93 4.0 9.0 0.00 0.00 0.00 48 1033.9
20190319140040 29 87 5.0 9.0 0.00 0.00 0.00 50 1034.0
20190319135508 29 84 4.0 9.0 0.00 0.00 0.00 51 1033.7
20190319135054 29 85 3.0 7.0 0.00 0.00 0.00 55 1033.7
20190319134553 28 105 3.0 6.0 0.00 0.00 0.00 58 1033.8
20190319134010 27 81 3.0 6.0 0.00 0.00 0.00 60 1033.7
20190319133559 27 98 2.0 4.0 0.00 0.00 0.00 58 1033.7
20190319133122 27 82 2.0 7.0 0.00 0.00 0.00 58 1033.6
20190319132514 27 93 4.0 7.0 0.00 0.00 0.00 58 1033.6
20190319132102 27 60 3.0 7.0 0.00 0.00 0.00 59 1033.5
20190319131611 27 87 4.0 7.0 0.00 0.00 0.00 58 1033.4
20190319131023 27 86 3.0 6.0 0.00 0.00 0.00 58 1033.3
20190319130108 26 67 4.0 9.0 0.00 0.00 0.00 60 1033.1
20190319125524 25 68 3.0 9.0 0.00 0.00 0.00 60 1032.9
20190319125003 25 82 3.0 8.0 0.00 0.00 0.00 60 1032.9
20190319124636 25 71 3.0 9.0 0.00 0.00 0.00 64 1032.8
20190319124029 24 68 3.0 9.0 0.00 0.00 0.00 66 1032.8
20190319123507 24 83 2.0 5.0 0.00 0.00 0.00 66 1032.5
20190319123135 23 74 2.0 5.0 0.00 0.00 0.00 65 1032.4
20190319122531 23 77 2.0 7.0 0.00 0.00 0.00 66 1032.4
20190319122011 22 81 3.0 7.0 0.00 0.00 0.00 68 1032.3
20190319121735 22 68 2.0 4.0 0.00 0.00 0.00 68 1032.2
20190319121037 22 69 2.0 4.0 0.00 0.00 0.00 69 1032.1
20190319120522 21 69 2.0 4.0 0.00 0.00 0.00 68 1032.0
20190319115544 21 69 0.0 3.0 0.00 0.00 0.00 68 1032.0
20190319115023 21 69 0.0 4.0 0.00 0.00 0.00 68 1031.8
20190319114508 21 72 1.0 4.0 0.00 0.00 0.00 70 1031.7
20190319114047 21 74 0.0 4.0 0.00 0.00 0.00 70 1031.7
20190319113531 20 74 2.0 4.0 0.00 0.00 0.00 71 1031.6
20190319113012 20 72 0.0 3.0 0.00 0.00 0.00 71 1031.6
20190319112551 21 72 1.0 2.0 0.00 0.00 0.00 71 1031.3
20190319112031 21 72 0.0 2.0 0.00 0.00 0.00 70 1031.2
20190319111531 21 72 0.0 4.0 0.00 0.00 0.00 68 1031.2
20190319111055 22 72 0.0 4.0 0.00 0.00 0.00 68 1031.1
20190319110539 22 99 1.0 4.0 0.00 0.00 0.00 67 1030.9
20190319110052 22 314 0.0 3.0 0.00 0.00 0.00 67 1030.7
20190319105505 22 276 0.0 4.0 0.00 0.00 0.00 68 1030.8
20190319105046 22 274 1.0 5.0 0.00 0.00 0.00 68 1030.7
20190319104622 22 293 1.0 5.0 0.00 0.00 0.00 68 1030.7
20190319104006 22 129 0.0 3.0 0.00 0.00 0.00 68 1030.4
20190319103549 22 162 1.0 2.0 0.00 0.00 0.00 67 1030.6
20190319103125 22 166 0.0 3.0 0.00 0.00 0.00 67 1030.8
20190319102510 22 79 0.0 3.0 0.00 0.00 0.00 67 1030.7
20190319102054 22 312 0.0 3.0 0.00 0.00 0.00 67 1030.4
20190319101550 22 207 0.0 3.0 0.00 0.00 0.00 68 1030.4
20190319101014 22 238 1.0 3.0 0.00 0.00 0.00 68 1030.3
20190319100600 22 247 0.0 3.0 0.00 0.00 0.00 69 1030.2
20190319100158 22 247 1.0 4.0 0.00 0.00 0.00 68 1030.3
20190319095521 22 136 1.0 4.0 0.00 0.00 0.00 68 1030.0
20190319095005 22 294 1.0 4.0 0.00 0.00 0.00 68 1029.9
20190319094552 22 252 1.0 4.0 0.00 0.00 0.00 68 1029.8
20190319094031 23 299 0.0 4.0 0.00 0.00 0.00 67 1029.9
20190319093509 23 291 1.0 4.0 0.00 0.00 0.00 67 1029.7
20190319093110 23 253 0.0 3.0 0.00 0.00 0.00 68 1029.5
20190319092529 23 60 1.0 3.0 0.00 0.00 0.00 67 1029.7
20190319092008 23 117 1.0 3.0 0.00 0.00 0.00 68 1029.5
20190319091621 23 355 1.0 3.0 0.00 0.00 0.00 68 1029.6
20190319091033 23 313 1.0 4.0 0.00 0.00 0.00 68 1029.7
20190319090519 23 96 1.0 4.0 0.00 0.00 0.00 67 1029.6
20190319090241 23 120 0.0 5.0 0.00 0.00 0.00 67 1029.7
20190319085540 23 87 1.0 5.0 0.00 0.00 0.00 66 1029.8
20190319085020 23 137 1.0 4.0 0.00 0.00 0.00 66 1029.7
20190319084044 23 159 1.0 4.0 0.00 0.00 0.00 65 1030.0
20190319083524 23 80 1.0 7.0 0.00 0.00 0.00 65 1030.1
20190319083006 23 89 3.0 7.0 0.00 0.00 0.00 65 1030.0
20190319082548 23 330 1.0 6.0 0.00 0.00 0.00 65 1030.1
20190319082032 23 26 1.0 4.0 0.00 0.00 0.00 66 1029.9
20190319081512 23 74 2.0 4.0 0.00 0.00 0.00 66 1030.0
20190319081057 23 298 0.0 3.0 0.00 0.00 0.00 65 1030.1
20190319080535 23 90 0.0 3.0 0.00 0.00 0.00 65 1030.4
20190319080123 23 90 1.0 3.0 0.00 0.00 0.00 66 1030.3
20190319075046 23 85 2.0 7.0 0.00 0.00 0.00 65 1030.2
20190319074543 23 53 1.0 4.0 0.00 0.00 0.00 66 1030.3
20190319074002 23 218 0.0 3.0 0.00 0.00 0.00 65 1030.2
20190319073546 23 333 0.0 3.0 0.00 0.00 0.00 65 1030.2
20190319073115 23 264 0.0 7.0 0.00 0.00 0.00 65 1030.3
20190319072506 23 68 0.0 7.0 0.00 0.00 0.00 64 1030.0
20190319072051 23 326 0.0 3.0 0.00 0.00 0.00 64 1030.1
20190319071618 23 22 1.0 4.0 0.00 0.00 0.00 64 1030.2
20190319071014 24 283 0.0 4.0 0.00 0.00 0.00 64 1030.1
20190319070556 24 74 1.0 5.0 0.00 0.00 0.00 63 1030.2
20190319070140 24 74 1.0 5.0 0.00 0.00 0.00 63 1030.0
20190319065520 24 296 0.0 3.0 0.00 0.00 0.00 63 1030.0
20190319064619 24 358 0.0 3.0 0.00 0.00 0.00 63 1030.0
20190319064023 24 287 0.0 3.0 0.00 0.00 0.00 63 1030.1
20190319063507 24 18 0.0 3.0 0.00 0.00 0.00 62 1030.2
20190319063119 24 18 1.0 3.0 0.00 0.00 0.00 62 1030.3
20190319062528 24 317 0.0 4.0 0.00 0.00 0.00 62 1030.3
20190319062006 24 76 0.0 3.0 0.00 0.00 0.00 62 1030.2
20190319061704 24 76 0.0 4.0 0.00 0.00 0.00 63 1030.4
20190319061031 24 316 1.0 4.0 0.00 0.00 0.00 62 1030.6
20190319060519 24 53 0.0 3.0 0.00 0.00 0.00 62 1030.5
20190319060211 24 53 1.0 3.0 0.00 0.00 0.00 62 1030.6
20190319055539 24 147 0.0 4.0 0.00 0.00 0.00 61 1030.5
20190319055020 24 158 0.0 9.0 0.00 0.00 0.00 61 1030.2
20190319054049 24 299 1.0 6.0 0.00 0.00 0.00 62 1030.0
20190319053529 24 270 2.0 6.0 0.00 0.00 0.00 62 1030.1
20190319053025 24 64 0.0 9.0 0.00 0.00 0.00 61 1030.0
20190319052547 24 332 1.0 9.0 0.00 0.00 0.00 61 1029.8
20190319052027 24 64 1.0 3.0 0.00 0.00 0.00 62 1029.8
20190319051514 24 63 0.0 7.0 0.00 0.00 0.00 62 1030.0
20190319051055 24 286 1.0 8.0 0.00 0.00 0.00 62 1029.9
20190319050531 24 279 1.0 8.0 0.00 0.00 0.00 62 1029.9
20190319050231 24 280 0.0 8.0 0.00 0.00 0.00 62 1030.1
20190319045544 24 280 1.0 8.0 0.00 0.00 0.00 62 1029.9
20190319045024 24 285 2.0 6.0 0.00 0.00 0.00 61 1029.9
20190319044513 24 295 1.0 9.0 0.00 0.00 0.00 61 1029.9
20190319044053 24 291 3.0 9.0 0.00 0.00 0.00 61 1029.6
20190319043535 24 288 0.0 8.0 0.00 0.00 0.00 61 1029.7
20190319043046 24 288 3.0 8.0 0.00 0.00 0.00 61 1029.7
20190319042045 24 273 0.0 7.0 0.00 0.00 0.00 61 1029.6
20190319041641 25 291 2.0 7.0 0.00 0.00 0.00 60 1029.8
20190319041014 25 293 3.0 7.0 0.00 0.00 0.00 60 1029.7
20190319040555 25 283 2.0 7.0 0.00 0.00 0.00 60 1029.8
20190319040027 24 299 1.0 7.0 0.00 0.00 0.00 60 1029.8
20190319035558 25 287 1.0 7.0 0.00 0.00 0.00 60 1029.7
20190319035041 25 266 1.0 8.0 0.00 0.00 0.00 60 1029.9
20190319034526 25 281 2.0 8.0 0.00 0.00 0.00 60 1029.8
20190319033541 25 296 4.0 8.0 0.00 0.00 0.00 58 1030.1
20190319033047 25 289 1.0 8.0 0.00 0.00 0.00 59 1029.8
20190319032502 25 294 3.0 8.0 0.00 0.00 0.00 58 1029.7
20190319032046 25 286 3.0 8.0 0.00 0.00 0.00 58 1029.5
20190319031559 25 224 1.0 8.0 0.00 0.00 0.00 58 1029.4
20190319031006 25 285 4.0 8.0 0.00 0.00 0.00 58 1029.7
20190319030557 25 290 2.0 7.0 0.00 0.00 0.00 58 1029.7
20190319030057 25 285 0.0 7.0 0.00 0.00 0.00 57 1029.6
20190319025516 25 300 1.0 8.0 0.00 0.00 0.00 58 1029.7
20190319025102 25 287 2.0 8.0 0.00 0.00 0.00 57 1029.5
20190319024651 26 295 0.0 6.0 0.00 0.00 0.00 57 1029.7
20190319024019 26 295 1.0 8.0 0.00 0.00 0.00 56 1029.7
20190319023141 26 300 3.0 7.0 0.00 0.00 0.00 56 1029.4
20190319022528 26 290 3.0 6.0 0.00 0.00 0.00 56 1029.8
20190319022002 26 255 1.0 4.0 0.00 0.00 0.00 55 1029.6
20190319021641 26 280 0.0 2.0 0.00 0.00 0.00 55 1029.6
20190319021026 26 277 0.0 7.0 0.00 0.00 0.00 56 1029.7
20190319020509 26 293 3.0 7.0 0.00 0.00 0.00 55 1029.6
20190319020141 26 278 1.0 6.0 0.00 0.00 0.00 54 1029.4
20190319015532 26 285 0.0 2.0 0.00 0.00 0.00 54 1029.3
20190319015012 26 285 0.0 8.0 0.00 0.00 0.00 54 1029.1
20190319014701 26 297 1.0 9.0 0.00 0.00 0.00 54 1028.9
20190319014036 27 281 4.0 9.0 0.00 0.00 0.00 54 1029.0
20190319013516 27 204 1.0 4.0 0.00 0.00 0.00 55 1029.0
20190319013157 27 156 1.0 6.0 0.00 0.00 0.00 54 1029.0
20190319012540 27 295 0.0 4.0 0.00 0.00 0.00 53 1029.2
20190319012023 27 296 0.0 4.0 0.00 0.00 0.00 54 1029.3
20190319011044 27 175 1.0 11.0 0.00 0.00 0.00 53 1028.9
20190319010532 27 285 2.0 7.0 0.00 0.00 0.00 53 1029.0
20190319010056 27 148 1.0 8.0 0.00 0.00 0.00 54 1028.9